Погода в Рыбинске

Хотите узнать прогноз погоды в Рыбинске? Тогда Вам сюда: Погода в Рыбинске

Поиск расширенной информации на нашем сайте:

Полезная информация:

Новости сайта



02.01.2020
Опубликован Долгосрочный прогноз погоды по городам России и ближнего зарубежья на январь 2020 года.
Карты: Прогноз на январь и февраль 2020 года, Сравнение прогнозируемой аномалии приземной температуры воздуха на январь 2020 года по разным моделям.




Погода в Рыбинске - сегодня

Время (UTC), дата Ветер
(°,м/с) 
Видим.   Явления Облачность Т
(°С)
Тd
(°С)
f(%) Тe
(°С)
Pmin
(гПа)
dP
(гПа)
Po
(мм)
O2
(г/м3)
Тmin Tmax R s Состояние
почвы
06 05.04.20 300 (СЗ) 4000 м  слаб. ливневой снег  10/10 300 м кучево-дожд. 
[Cb cap]
+0.6 -3.9 72 1019.1  0.8  754  304           
09 05.04.20 310 (СЗ) 3{10}  10 км  {ливн. осадки}  6/6 300 м 
[Cu med, cong]
+1.3 -4 68 1020  755  303           
12 05.04.20 310 (СЗ) 4{12}  10 км  {ливн. осадки}  3/3 600 м 
[Cu med, cong]
+2.7 -5.9 53 +1  1020.6  0.6  756  302           
15 05.04.20 310 (СЗ) 4{10}  10 км    4/4 300 м 
[Cu med, cong]
+0.3 -4.2 72 -2  1022.2  1.5  757  305    +2.8  0.3     
18 05.04.20 320 (СЗ) 4{12}  10 км    3/0 верхняя 
[Ci fib]
+0.2 -6.5 61 -2  1023.9  1.6  758  306           
21 05.04.20 330 (СЗ) 3{10}  10 км    ясно 
-0.8 -5.9 68 -3  1024.8  0.9  759  307           
00 06.04.20 330 (СЗ) 3{11}  10 км    ясно 
-1.5 -5.2 76 -3  1026.4  1.4  760  308           
03 06.04.20 320 (СЗ) 10 км    8/8 600 м 
[Cu med, cong]
-1.6 -4.8 79 -4  1028  1.7  761  309  -1.8        замёрзшая 
06 06.04.20 330 (СЗ) 10 км    8/8 300 м 
[Cu med, cong]
-1.1 -5 75 -3  1029.8  1.8  762  309  -2.1         
09 06.04.20 320 (СЗ) 10 км    4/4 300 м 
[Cu med, cong]
+1.7 -5.7 58 1030.4  0.7  763  306           
12 06.04.20 340 (С) 10 км    3/3 300 м 
[Cu med, cong]
+2.1 -12.2 34 1031.2  0.9  763  306           
15 06.04.20 330 (СЗ) 10 км    3/3 300 м 
[Cu med, cong]
+1.2 -11.9 37 +1  1031.8  0.5  764  308    +2.5       
18 06.04.20 тихо ()   10 км    ясно 
-1.5 -9.9 53 -2  1033  765  311           
21 06.04.20 270 (З) 10 км    ясно 
-3.1 -8.7 65 -3  1034.2  1.2  765  313           
00 07.04.20 тихо ()   10 км    ясно 
-5.9 -8.3 83 -6  1035.3  0.9  766  316    -10.1       
03 07.04.20 тихо ()   10 км    3/0 верхняя 
[Ci]
-7 -9.1 85 -7  1035.6  0.2  766  318  -7.5        замёрзшая 
06 07.04.20 260 (З) 10 км    4/0 верхняя 
[Ci fib]
+1.5 -11.8 36 +1  1034.4  -0.8  766  308           
09 07.04.20 240 (ЮЗ) 10 км    10/10 2000 м 
[Ac und]
+3.4 -13 29 +3  1032.3  -1.9  764  305           
12 07.04.20 200 (Ю) 10 км    6/6 600 м 
[Cu med, cong]
+6.7 -8.1 34 +8  1028.3  -3.8  761  300           
15 07.04.20 180 (Ю) 10 км    8/0 верхняя 
[Ci sp]
+7.5 -4.4 43 +8  1024.4  -3.8  759  298    +7.7       
18 07.04.20 170 (Ю) 10 км    8/0 верхняя 
[Ci fib]
+4.5 -4 54 +4  1021.5  -3  756  300           
21 07.04.20 170 (Ю) 10 км    3/0 верхняя 
[Ci fib]
+3.4 -3.4 61 +4  1017.4  -4.1  753  300           
00 08.04.20 170 (Ю) 10 км    8/0 верхняя 
[Ci fib]
+2.3 -2.6 70 +3  1013.8  -3.6  751  300           
03 08.04.20 тихо ()   10 км    8/8 2000 м средняя 
[As trans]
+4 -3.3 59 +4  1011.2  -2.5  749  298  +0.6        влажная 
06 08.04.20 320 (СЗ) 10 км    8/4 600 м кучево-дожд., средняя 
[Cb calv|Ac trans]
+8.1 -1.7 50 +8  1011.4  0.4  749  293           
Время (UTC), дата Ветер
(°,м/с) 
Видим.   Явления Облачность Т
(°С)
Тd
(°С)
f(%) Тe
(°С)
Pmin
(гПа)
dP
(гПа)
Po
(мм)
O2
(г/м3)
Тmin Tmax R s Состояние
почвы

Для получения пояснительной информации подведите курсор к названию столбца.

ПОГОДА в Рыбинске - архив

Всё, что Вы хотите узнать о погоде в Рыбинске - удобно и подробно!

Выберите нужную дату (начиная с 1 января 2019* года) и нажмите кнопку "Найти".
Будут отображены архивные сводки погоды по пункту Рыбинск, начиная с указанной даты.


Отображать данные в формате CSV (для использования в таблицах Excel)


Внимание! Наш архив погоды предназначен исключительно для личного некоммерческого использования в познавательных целях. Если Вам необходимы официальные справки о состоянии погоды (для производственных, юридических, коммерческих и т.п. целей), обращайтесь в органы Росгидромета.

*Примечание: данная дата относится к архиву по метеостанциям СССР (Россия, СНГ, Балтия).
Архив по метеостанциям Зарубежной Европы и Азии (кроме Китая) хранится 10 дней, по другим регионам земного шара (Китай, Африка, Америка, Австралия, Океания) - 1 день.

Рыбинск - район местоположения метеостанции


Название, широта, долгота, высота метеостанции:
Рыбинск 58.1°ш. 38.7°д. 105 м над ур. моря [Российская Федерация]

Дополнительная информация

В oтличие oт бoльшинства пoгoдных сайтoв мы публикуем пoдрoбную метеoинфoрмацию в детальнoм прoфессиoнальнoм фoрмате.

Характеристики температуры и влажнoсти вoздуха измеряются на высoте 2 м в тени вдали oт зданий и деревьев.
Скoрoсть ветра измеряется на высoте 10 м (на урoвне рoста челoвека скoрoсть ветра ниже в 1.5-2 раза). Если метеoстанция нахoдится в гoрoде или в лесу, тo скoрoсть ветра занижена на 2-4 м/с пo сравнению с oткрытым местoм. Скoрoсть ветра над акватoриями крупных рек и oзёр, а также на вершинах хoлмoв на 2-5 м/с выше, чем в oбычных услoвиях.
Атмoсфернoе давление в разных тoчках местнoсти мoжет значительнo oтличаться oт давления на метеoстанции, в зависимoсти oт услoвий рельефа (при пoдъёме на 10 м давление пoнижается примернo на 1 мм рт.ст.).